EHI
0 0 0 0 0 0 0 0 0 0 0 0 0 0 0 0 1 3 4 4 3 2 1 1 1 1 1 2 3 3 2 1 0 0 0 0 0 0 0 0 0 0 0 0
0 0 0 0 0 0 0 0 0 0 0 0 0 0 0 0 0 2 3 3 3 2 1 2 4 4 3 3 4 4 3 1 0 0 0 0 0 0 0 0 0 0 0 0
0 0 0 0 0 0 0 0 0 0 0 0 0 0 0 0 0 0 2 3 3 2 2 5 7 7 6 6 6 7 6 3 1 1 1 1 0 0 0 0 0 0 0 0
0 0 0 0 0 0 0 0 0 0 0 0 0 0 0 0 0 0 1 2 3 4 5 7 10 10 9 9 10 10 9 6 2 2 2 2 1 0 0 0 0 0 0 0
0 0 0 0 0 0 0 0 0 0 0 0 0 0 0 0 0 0 0 1 2 4 5 7 10 10 9 10 13 14 13 9 5 3 3 3 1 0 0 0 0 0 0 0
0 0 0 0 0 0 0 0 0 0 0 0 0 0 0 0 0 0 0 0 1 3 5 7 8 8 8 10 15 17 16 13 9 5 3 3 2 1 0 0 0 0 0 0
0 0 0 0 0 0 0 0 0 0 0 0 0 0 0 0 0 0 0 0 0 2 6 8 7 6 7 11 16 18 18 16 12 8 5 3 2 1 0 0 0 0 0 0
0 0 0 0 0 0 0 0 0 0 0 0 0 0 0 0 0 0 0 0 0 2 6 8 8 7 8 11 15 17 16 15 14 12 7 4 3 1 1 1 0 0 0 0
0 0 0 0 0 0 0 0 0 0 0 0 0 0 0 0 1 1 1 0 0 2 5 8 9 8 8 10 13 15 14 14 14 13 8 4 3 2 2 1 0 0 0 0
0 0 0 0 0 0 0 0 0 0 0 0 0 0 0 0 1 2 2 1 0 2 4 7 8 8 8 9 12 13 12 13 13 12 9 5 3 3 2 2 1 0 0 1
0 0 0 0 0 0 0 0 0 0 0 0 0 0 0 0 0 2 3 3 1 2 5 5 6 6 7 10 12 12 11 12 12 11 10 7 5 5 4 3 3 2 1 2
0 0 0 0 0 0 0 0 0 0 0 0 0 0 0 0 1 2 3 4 2 3 5 5 4 6 8 11 13 13 12 12 11 11 9 8 8 8 7 6 5 4 3 3
0 0 0 0 0 0 0 0 0 0 0 0 0 0 0 1 2 3 3 3 2 3 5 5 6 7 9 12 14 15 14 12 11 11 10 10 10 11 9 6 5 4 4 3
0 0 0 0 0 0 0 0 0 0 0 0 0 0 0 1 2 3 2 1 2 3 5 7 8 9 10 11 14 16 15 12 12 12 12 12 12 12 9 5 3 2 2 2
0 0 0 0 0 0 0 0 0 0 0 0 0 0 0 1 3 3 1 1 3 5 6 8 9 10 10 10 13 15 14 13 15 16 15 13 12 10 8 5 2 1 2 2
0 0 0 0 0 0 0 0 0 0 0 0 0 0 1 2 4 3 2 2 4 6 6 7 9 10 10 11 12 14 14 15 19 21 18 14 12 9 7 6 5 5 6 6
0 0 0 0 0 0 0 0 0 0 0 0 0 0 1 3 5 5 4 4 5 6 7 8 8 10 12 13 14 16 17 19 24 25 20 16 13 11 9 8 9 10 11 12
0 0 0 0 0 0 0 0 0 0 0 0 0 1 2 4 6 5 4 5 6 8 10 9 9 11 14 15 17 19 21 23 25 25 22 17 15 14 12 12 13 13 13 14
0 0 0 0 0 0 0 0 0 0 0 0 0 1 3 6 7 5 3 4 5 9 10 10 11 12 13 15 17 19 21 22 24 25 24 20 17 17 15 15 15 13 12 12
0 0 0 0 0 0 0 0 0 0 0 0 0 1 3 5 6 4 3 2 3 6 9 11 13 13 13 14 16 18 17 18 20 23 23 20 19 18 17 16 16 13 11 9
0 0 0 0 0 0 0 0 0 0 0 0 0 1 2 3 3 2 1 1 1 3 7 11 13 14 13 14 15 15 14 14 15 17 17 17 17 17 16 16 14 11 9 9
0 0 0 0 0 0 1 0 0 0 0 1 2 1 1 1 0 1 1 0 1 3 5 8 11 12 12 13 13 13 12 13 13 14 14 15 17 16 15 14 12 10 9 8
0 0 0 0 0 0 0 0 0 0 0 2 3 2 1 0 1 1 2 2 2 3 4 7 9 10 9 9 10 10 9 11 14 14 15 16 17 16 15 14 11 9 9 9
0 0 0 0 0 0 0 0 0 0 0 1 2 3 2 2 2 3 4 3 3 3 4 6 8 9 8 7 7 7 8 11 15 16 16 16 17 16 15 14 12 10 9 9
0 0 1 1 1 0 0 0 0 0 0 0 1 2 3 4 4 5 4 4 3 4 4 5 7 8 8 7 7 6 7 11 16 18 17 16 16 16 15 14 11 9 9 9
0 0 1 2 1 0 0 0 0 0 0 0 0 1 3 4 5 5 5 4 4 5 5 5 6 8 9 8 7 6 7 12 17 19 18 17 16 16 16 14 11 7 7 8
Wind_Speed
2 4 3 6 7 5 4 3 3 4 2 3 4 5 5 8 8 8 8 8 9 9 7 5 6 6 5 5 5 5 5 4 4 2 2 2 1 1 0 1 2 2 3 3
4 3 7 4 4 3 3 2 3 3 1 3 3 4 3 8 11 11 11 11 10 7 5 6 6 6 6 6 6 5 5 5 4 3 2 2 2 1 1 1 0 1 3 3
6 5 3 4 3 3 3 5 5 2 2 2 1 4 2 3 5 6 8 9 9 11 10 9 8 8 7 7 8 7 6 5 4 4 3 2 2 1 1 0 0 1 2 2
4 4 3 3 4 5 4 5 5 3 3 2 1 3 6 3 4 7 8 9 10 10 10 9 9 8 9 9 7 6 6 5 5 5 4 4 3 2 2 1 1 1 1 1
4 3 4 4 5 6 5 2 3 3 3 1 1 1 8 1 5 9 10 10 10 10 11 11 11 11 9 8 7 6 6 5 5 5 5 5 3 2 1 1 1 0 0 1
4 3 4 5 2 5 4 7 7 6 5 1 3 3 7 4 7 7 9 10 9 9 10 10 9 8 7 7 7 7 6 6 5 5 5 5 5 4 3 2 1 1 0 0
3 3 2 2 2 2 5 7 4 4 3 5 2 3 10 7 6 7 9 10 9 8 9 9 9 10 9 9 9 8 8 7 6 6 5 5 5 5 5 3 3 2 1 1
2 5 4 3 6 6 4 8 8 6 5 4 1 5 9 5 4 4 5 6 6 8 8 9 10 10 10 10 9 9 8 7 6 6 6 5 5 4 3 3 3 3 2 2
5 6 4 2 2 8 5 3 6 7 2 1 5 7 9 3 3 2 1 3 5 8 8 9 9 9 9 10 10 10 10 8 7 7 5 4 5 4 4 3 3 3 2 2
7 3 4 2 3 3 5 8 6 6 5 3 5 5 5 6 4 2 2 3 5 5 6 6 7 8 8 8 8 8 8 8 7 7 6 6 5 5 4 3 4 3 3 3
4 4 4 2 2 3 3 4 5 5 5 6 3 7 6 6 5 4 5 4 4 5 6 6 6 6 7 7 8 8 7 7 6 6 6 5 4 4 4 4 4 4 3 3
2 5 2 5 3 2 4 6 7 6 4 4 4 8 4 4 4 3 3 3 3 4 5 5 5 5 6 7 7 8 8 7 7 6 5 5 4 4 4 4 4 3 3 3
3 6 2 5 5 3 2 2 3 5 5 5 5 8 3 2 1 1 2 3 3 3 4 4 4 5 6 7 6 7 7 8 7 6 6 5 5 5 5 4 3 3 2 2
5 4 6 9 7 3 1 1 3 5 4 5 7 7 5 3 3 2 1 2 3 3 4 4 4 4 5 6 6 6 7 7 7 6 6 6 6 6 5 4 3 3 3 3
5 3 2 3 3 3 3 3 4 5 7 8 7 7 7 5 4 3 1 2 3 3 3 4 4 4 4 4 5 5 5 5 6 6 6 6 5 4 4 4 3 3 3 3
4 3 1 1 1 2 2 3 5 4 4 4 3 5 4 2 0 1 1 2 3 3 4 4 4 4 4 4 5 5 5 6 6 6 6 5 5 5 4 4 4 4 3 3
1 3 2 2 3 1 3 4 4 2 2 4 5 5 0 1 1 1 1 2 2 2 2 3 4 4 4 4 5 5 6 5 6 6 5 5 5 5 5 5 4 4 4 3
4 3 3 1 2 4 7 2 3 3 0 1 1 1 2 3 1 0 1 2 1 0 1 1 2 2 3 3 4 4 4 5 5 5 5 5 5 5 4 4 4 4 3 4
5 7 4 3 3 4 5 1 1 2 1 2 1 1 1 1 3 3 2 1 1 1 1 1 2 2 2 2 3 4 4 4 5 5 5 5 5 5 5 4 4 4 4 3
4 4 5 4 4 6 6 2 2 2 2 2 1 1 1 3 2 3 2 1 1 1 1 0 1 2 2 1 3 4 4 4 4 5 5 4 4 5 5 5 4 3 3 3
3 3 3 4 3 6 5 4 1 4 6 2 2 2 2 3 5 4 2 1 1 1 1 1 2 2 1 2 3 3 3 4 4 4 4 4 4 5 5 4 3 3 3 3
4 4 4 4 4 7 3 2 3 4 2 2 3 3 3 3 1 1 0 0 1 1 2 2 2 1 0 2 4 3 3 3 2 3 3 3 3 4 3 4 3 3 3 3
3 5 5 6 6 4 2 1 2 2 2 3 3 4 3 2 2 1 1 0 0 0 1 1 1 1 1 1 3 3 2 1 1 3 3 3 3 3 3 4 4 3 3 3
2 1 2 1 3 3 3 2 1 1 2 3 3 2 2 3 2 1 1 1 0 1 1 1 1 1 1 0 1 3 2 1 2 2 2 2 3 2 2 2 3 3 3 3
3 0 1 2 3 3 3 3 3 3 3 2 2 1 1 2 2 2 2 1 1 1 1 0 0 1 2 1 1 1 2 3 3 2 2 2 2 2 2 1 1 2 2 4
4 5 4 6 5 3 5 4 3 2 3 2 2 2 1 1 2 2 2 2 2 1 1 0 0 1 2 1 1 1 1 3 3 2 2 2 2 2 2 2 1 2 1 1
Wind_Direction
98 94 192 205 194 187 175 180 241 250 204 165 219 242 213 185 190 193 197 201 207 213 207 190 184 173 162 164 166 171 168 164 147 137 144 141 181 196 204 221 212 201 187 174
62 237 224 185 193 162 165 197 251 290 172 160 225 259 224 192 202 200 199 204 206 207 196 189 185 177 176 178 176 177 179 171 169 164 156 151 151 173 207 236 225 199 182 179
186 228 177 152 170 169 202 198 211 215 21 34 75 317 261 225 212 209 207 207 206 202 199 194 190 189 184 186 186 189 187 178 175 160 130 109 82 61 61 36 283 244 193 187
223 240 170 181 202 169 239 217 188 148 96 307 94 274 281 232 228 219 217 208 209 208 197 193 192 192 193 195 187 185 181 178 174 162 156 155 162 179 201 198 216 250 173 175
232 200 177 204 213 174 208 140 132 123 127 29 358 198 285 243 240 235 226 215 210 205 196 193 194 196 196 189 181 182 174 178 176 173 173 167 172 181 168 145 162 204 146 166
233 230 196 202 193 155 129 74 60 52 68 308 243 180 277 239 228 238 225 217 209 203 197 194 190 186 188 180 176 175 173 182 180 177 177 177 177 174 166 177 194 221 207 166
308 298 256 159 100 63 105 95 46 5 10 254 245 201 251 255 243 228 221 215 204 194 191 187 183 185 187 183 182 178 176 187 185 183 187 188 183 177 181 189 194 193 192 204
193 280 248 192 171 173 172 141 157 190 212 265 268 233 252 266 279 245 222 208 189 187 190 190 189 188 189 187 183 178 180 189 186 188 194 190 184 181 189 192 188 193 202 213
177 252 283 238 181 144 143 167 161 133 146 243 277 285 299 302 337 343 243 179 188 190 188 190 186 183 183 184 184 182 181 187 188 189 188 189 189 189 193 193 190 197 203 206
161 225 289 294 73 50 135 142 106 121 146 231 285 278 264 289 294 302 258 212 208 191 179 176 178 179 179 181 180 177 179 187 190 187 189 198 198 195 191 188 198 203 207 200
137 164 304 17 136 177 100 99 108 120 152 161 230 265 234 237 241 228 227 217 203 186 180 178 175 174 167 165 169 174 176 181 188 190 190 196 195 191 187 195 205 204 207 197
135 129 233 264 267 207 154 159 146 154 202 176 182 261 275 236 243 216 217 208 191 179 174 169 159 155 162 172 176 179 183 186 190 186 181 189 187 183 186 197 205 203 206 202
128 115 98 335 337 7 79 132 144 129 126 157 177 258 305 343 320 240 200 187 169 152 146 144 148 164 173 177 179 181 184 187 186 179 179 185 187 186 191 197 197 193 193 190
117 117 165 195 214 214 227 201 159 132 152 195 217 238 286 305 303 301 262 176 151 151 154 153 162 178 182 177 180 184 188 184 179 178 180 186 192 193 194 191 189 191 189 188
94 129 199 227 232 194 212 225 199 194 191 191 223 220 241 243 244 254 250 139 133 147 159 171 179 188 187 183 186 185 187 182 177 174 182 189 191 185 177 174 180 187 189 200
65 123 132 288 279 220 244 258 223 224 208 213 217 246 247 240 136 65 82 129 152 175 184 185 180 183 192 191 189 181 183 184 175 181 189 184 179 180 181 183 178 180 187 190
60 111 106 260 299 37 261 239 202 198 220 192 208 231 153 88 101 191 145 127 156 184 184 188 194 194 199 197 186 183 184 178 175 181 184 180 179 184 190 192 182 184 189 184
145 113 126 155 75 220 241 250 153 141 100 294 216 202 166 175 187 107 95 130 151 177 173 201 201 202 201 183 175 170 162 167 175 180 183 184 182 187 184 181 187 192 187 188
166 142 131 134 172 258 286 269 146 146 293 308 218 205 140 103 67 25 9 30 200 212 204 189 197 198 187 166 160 141 150 162 170 182 185 185 181 184 181 185 195 198 187 189
77 105 122 137 163 219 241 274 302 122 250 295 198 189 117 97 103 263 306 332 332 1 21 92 122 125 122 153 140 135 149 164 183 195 196 182 179 184 187 191 194 196 183 183
66 71 127 162 200 253 265 299 12 179 232 272 245 240 188 184 210 231 267 314 329 10 35 62 81 104 159 141 131 149 165 191 199 187 188 184 185 191 186 179 178 174 170 160
171 154 172 154 184 245 303 50 162 221 262 244 248 242 224 224 229 218 197 319 11 25 36 65 85 69 36 124 135 153 204 219 187 163 173 180 190 198 182 168 167 165 166 166
198 191 183 186 207 245 289 221 232 209 254 264 249 258 235 213 215 218 246 263 309 332 14 50 108 96 34 136 153 173 234 225 153 149 164 174 187 197 181 170 172 171 169 175
275 151 145 240 262 270 285 289 302 287 276 285 276 265 216 192 192 199 252 255 269 320 337 358 74 86 350 286 193 198 204 160 142 157 173 168 171 179 168 164 172 177 184 185
239 174 140 253 271 313 302 287 293 311 313 317 329 330 245 172 174 184 201 235 236 260 300 328 227 235 259 270 255 228 172 151 153 170 181 171 169 168 151 136 155 191 202 197
217 196 194 229 229 216 259 275 277 285 291 291 305 332 340 197 204 190 205 223 231 236 206 168 319 292 292 284 269 251 181 163 160 171 182 179 172 168 163 149 84 42 133 168